Regional Weather Roundup
Issued by NWS

Home | Current Version | Previous Version | Text Only | Print | Product List | Glossary Off
Versions: 1 2 3 4 5 6 7 8 9 10 11 12 13 14 15 16 17 18 19 20 21 22 23 24 25 26 27 28

000
ASUS45 KTFX 292110
RWRMT
MONTANA REGIONAL WEATHER ROUNDUP
NATIONAL WEATHER SERVICE GREAT FALLS MT
300 PM MDT WED MAR 29 2017

NOTE: "FAIR" INDICATES FEW OR NO CLOUDS BELOW 12000 FEET WITH NO
SIGNIFICANT WEATHER AND/OR OBSTRUCTIONS TO VISIBILITY.

MTZ001>007-043-292200-
WEST OF THE DIVIDE

CITY           SKY/WX    TMP DP  RH WIND       PRES   REMARKS
KALISPELL      CLOUDY    45  40  82 SE15      29.91F
MISSOULA       LGT RAIN  49  39  68 E6        29.94F
BUTTE          CLOUDY    51  30  44 SW9G18    29.95F
MULLAN PASS    SNOW      34  32  92 VRB6      29.89S VSB 1/4 WCI  29
ANACONDA         N/A     54  30  40 S21G29    29.92F
DEER LODGE       N/A     54  34  47 SE20G25   29.91F
EUREKA           N/A     46  36  66 SE17      29.87F
HAMILTON         N/A     54  37  54 S12G21    29.93F
PLAINS           N/A     49  39  68 CALM      29.93F
RONAN            N/A     50  38  63 S12       29.96F
THOMPSON FALLS   N/A     49  41  74 CALM      29.97F
$$

MTZ008-052>055-292200-
SOUTHWEST MONTANA

CITY           SKY/WX    TMP DP  RH WIND       PRES   REMARKS
BOZEMAN        CLOUDY    53  33  46 NE6       29.96F
DILLON         CLOUDY    54  30  40 SW17G30   29.96F
W YELLOWSTONE  CLOUDY    36  28  75 SW13G18   30.12F WCI  27
ENNIS          CLOUDY    50  28  43 S30G37    30.04F
THREE FORKS      N/A     57  57 100 SW9       29.95F
TWIN BRIDGES     N/A     57  29  34 S20       29.95F
$$

MTZ009-010-012-014-046-048-049-054-292200-
EAST SLOPES AND CENTRAL MONTANA

CITY           SKY/WX    TMP DP  RH WIND       PRES   REMARKS
CUT BANK       CLOUDY    53  29  39 S16G23    29.82F
GREAT FALLS    CLOUDY    52  32  46 SW16G26   29.88F
MALMSTROM AFB  CLOUDY    52  33  48 S22G28    29.88F
HELENA         CLOUDY    54  35  48 S12       29.91F
AUGUSTA        PTSUNNY   50  29  44 SW22G29   29.84F
BOWMANS CRNR     N/A     49  33  54 S23G32    29.84F
CHOTEAU          N/A     57  30  35 SW14G25   29.84F
CONRAD           N/A     55  35  46 S16       29.87F
FAIRFIELD        N/A     49  32  51 S21       29.83F
POWER            N/A     50  33  51 S21G28    29.86F
RAYNESFORD     PTSUNNY   52  31  45 SW22G29   29.89F
$$

MTZ011-013-016-021-045-047-050-051-292200-
NORTH CENTRAL MONTANA

CITY           SKY/WX    TMP DP  RH WIND       PRES   REMARKS
HAVRE          MOSUNNY   58  30  34 SW18      29.86F
LEWISTOWN      MOSUNNY   56  26  31 SW17      29.89F
N BAR RANCH      N/A     57  25  28 SW14G24   29.91F
CHINOOK          N/A     57  27  30 SW8G18    29.87F
DENTON         PTSUNNY   55  26  32 SW3       29.85F
FORT BENTON      N/A     55  34  44 MISG      29.89F
GEYSER         PTSUNNY   53  31  43 W15       29.88F
GRASS RANGE    PTSUNNY   55  26  33 E8        29.86F
JUDITH GAP     PTSUNNY   53  28  37 W23G30    29.91F
STANFORD         N/A     52  26  35 CALM      29.88F
WINIFRED         N/A     56  26  31 W8        29.88F
$$

MTZ017>020-022>027-061-062-292200-
NORTHEAST MONTANA

CITY           SKY/WX    TMP DP  RH WIND       PRES   REMARKS
GLASGOW        MOSUNNY   58  27  30 W6        29.90F
JORDAN           N/A     58  28  32 SW17      29.92F
SIDNEY         MOSUNNY   62  29  28 SW13G22   29.91F
WOLF POINT     MOSUNNY   62  29  28 W15G21    29.90F
MALTA          SUNNY     59  28  31 W9G15     29.88F
PLENTYWOOD       N/A     57  27  30 W13G24    29.87F
POPLAR           N/A     59  28  31 W13G18    29.90F
SCOBEY           N/A     59  26  28 MISG      29.87F
$$

MTZ028>42-056>058-292200-
SOUTHCENTRAL AND SOUTHEAST MONTANA

CITY           SKY/WX    TMP DP  RH WIND       PRES   REMARKS
BAKER          SUNNY     60  29  30 W15G24    29.96F
BILLINGS       MOSUNNY   58  32  37 S7        29.93F
LIVINGSTON     PTSUNNY   55  29  36 SW25G38   29.94F
MILES CITY     PTSUNNY   57  28  33 SW13G18   29.95F
BIG TIMBER     PTSUNNY   57  28  33 W25G32    29.95F
EKALAKA          N/A     58  27  30 W9        29.95F
FORSYTH          N/A     57  30  35 CALM      29.95F
HARLOWTON      PTSUNNY   55  26  32 W12       29.92F
LAUREL           N/A     60  31  33 S12       29.92F
$$

REGIONAL REPORTS...DAKOTAS

CITY           SKY/WX    TMP DP  RH WIND       PRES   REMARKS
WILLISTON      MOSUNNY   62  33  33 W16G23    29.91F
MINOT          PTSUNNY   61  38  42 S18G24    29.92F
DICKINSON      CLOUDY    62  28  27 SW16      29.91F
BEACH            N/A     59  25  27 W16G26    29.97S
TIOGA          PTSUNNY   57  34  41 W14       29.91F
WATFORD CITY     N/A     59  32  36 W16       29.91F
BISMARCK       CLOUDY    61  38  42 S15G25    29.98F
GRAND FORKS    MOSUNNY   61  47  59 S14       30.04F
FARGO          MOSUNNY   61  41  47 S15G22    30.07F
BUFFALO SD       N/A     63  27  25 NW13      29.90F
RAPID CITY     MOSUNNY   55  38  52 VRB7      30.00F
$$

REGIONAL REPORTS...WYOMING/IDAHO/WASHINGTON

CITY           SKY/WX    TMP DP  RH WIND       PRES   REMARKS
GILLETTE       SUNNY     58  26  29 N3        29.98F
SHERIDAN       CLOUDY    57  31  37 E5        29.96F
BUFFALO WY     CLOUDY    56  24  29 SE9       29.97F
CODY           CLOUDY    60  24  25 W12G22    29.96F
YELLOWSTONE LA   N/A     37  24  59 VRB6      30.12F
IDAHO FALLS    CLOUDY    51  34  52 SW14      30.13F
SALMON         CLOUDY    54  32  43 NE3       29.98F
BOISE          CLOUDY    60  35  39 SE7       30.07F
SPOKANE        CLOUDY    46  44  93 S9        29.87S
$$

REGIONAL REPORTS...ALBERTA

CITY           SKY/WX    TMP DP  RH WIND       PRES   REMARKS
CALGARY        CLOUDY    50  25  37 S16G23    29.73F
LETHBRIDGE     PTSUNNY   52  30  43 S15G22    29.79F
MEDICINE HAT   CLOUDY    57  25  28 SW10      29.80F
WATERTON GATE    N/A     46  28  49 SW16G23     N/A
CARDSTON         N/A     52  30  43 S8          N/A
MILK RIVER       N/A     52  32  46 S17G23      N/A
ONEFOUR          N/A     55  25  30 S13G20      N/A
$$

REGIONAL REPORTS...SASKATCHEWAN

CITY           SKY/WX    TMP DP  RH WIND       PRES   REMARKS
SWIFT CURRENT  SUNNY     57  19  23 W17       29.81F
REGINA         MOSUNNY   59  30  33 SW13G23   29.80F
SASKATOON      MOSUNNY   54  39  58 NW8       29.81F
VAL MARIE        N/A     55  25  30 W17G23      N/A
ASSINIBOIA       N/A     37  37 100 SE5         N/A
$$




USA.gov is the U.S. government's official web portal to all federal, state and local government web resources and services.